Vertical_Velocity
-1 -1 0 1 -1 0 -1 1 -1 -1 4 -0 1 -1 1 -2 0 -1 -1 0 0 -0 -1 -1 -1 -1 -1 -0 -0 -0 0 0 -0 0 -1 -0 0 -0 -1 0 -0 -1 -1
-1 -2 -1 0 -1 -1 -0 -1 -0 -1 1 0 -1 -1 -1 2 -1 -1 0 -1 0 -1 -0 -0 -0 -1 -2 -0 0 -1 -1 -1 -0 1 -0 -1 0 -1 -0 -0 0 -1 -1
-1 0 -1 -2 0 -1 -2 -0 -1 -1 -1 -1 -0 4 -1 2 -2 -2 -0 -2 1 -1 -1 -0 -0 0 -1 -0 -1 0 -1 0 0 0 -0 0 -0 0 -1 -0 -0 -1 -1
-1 -1 -1 -1 0 0 -0 -2 -2 -2 1 -1 -1 1 -2 1 5 -1 -0 -1 -1 1 -1 -1 -1 -1 -0 -1 -0 0 -0 -0 -0 -0 -0 -0 -0 0 0 0 -2 -1 1
0 -1 -0 -1 -1 -0 -0 -0 -1 -2 -1 -1 1 -2 -1 -0 1 -1 -1 -0 -1 -1 0 -0 0 -0 -0 -0 -1 0 0 0 0 0 0 1 0 -0 -1 -1 -1 -0 -1
-1 0 0 0 1 0 -0 1 0 0 -1 1 -1 -2 1 -2 1 0 -2 -1 -0 -1 0 -0 1 1 0 0 -1 -0 -0 1 0 1 -0 1 -2 -0 2 1 0 -1 -1
0 0 1 0 1 2 1 -1 0 0 1 -0 -0 1 -0 2 1 1 -1 -0 -1 -0 -1 0 0 1 -0 -0 0 -0 0 0 0 1 -1 -0 -0 0 0 0 0 0 0
-1 0 1 1 -0 -0 1 1 -0 -0 0 1 2 2 2 -1 2 2 2 3 0 -1 1 0 1 1 1 -1 1 1 -0 0 0 0 2 0 -0 -0 -0 0 1 1 -0
-0 -1 -1 -1 -0 0 -0 -0 1 -1 0 -0 1 2 3 -0 2 3 -0 0 0 1 -0 -0 0 1 0 -1 -1 -0 2 1 -1 1 -2 1 1 0 -0 0 1 0 -0
0 -1 -1 -1 -1 -0 1 -1 1 1 1 0 0 1 -1 1 1 -1 -2 -1 -0 2 1 -1 -3 1 1 -0 0 0 0 3 0 -3 -1 -1 0 1 0 -0 1 0 -0
-1 -0 0 -1 -1 -1 0 1 -0 -0 0 0 -0 0 -0 -1 -0 -0 0 -0 -0 -1 2 -1 3 -2 1 -0 -1 -1 -1 -1 2 2 -1 -0 0 0 1 1 0 0 0
0 -1 -1 -1 -2 -1 -2 -1 0 -0 -0 -0 -0 3 1 1 1 0 1 1 0 1 -0 1 5 1 -2 0 0 -1 -0 -1 -1 1 -0 1 0 0 0 0 0 1 1
1 1 -0 -1 -1 -1 -2 -1 -0 0 0 -0 -1 -1 3 3 6 1 2 0 1 2 2 1 -2 6 0 -0 -0 -0 -1 -1 -2 -1 0 -1 -1 1 1 0 1 1 2
1 1 -2 -0 -0 -1 -2 -1 -2 0 0 -0 -1 -1 -1 3 2 5 2 1 2 3 2 2 -0 2 1 0 -0 -1 1 -1 -1 -1 -3 2 -1 -0 -1 1 1 2 2
-1 -1 -0 -0 -1 -1 -2 -1 -1 -1 -1 -1 -1 -0 -1 -0 0 2 2 3 2 2 5 1 2 2 -2 1 1 -0 -0 1 -2 -1 -2 -1 2 -1 2 -0 3 1 1
-1 -1 -1 0 0 1 -1 -1 -2 -0 -1 -0 0 -0 -0 -0 -0 0 2 4 3 3 3 2 2 3 1 1 -1 0 0 -1 0 -1 -1 -1 1 1 1 1 2 -1 2
1 -0 -1 -0 -1 -1 -0 -0 -0 -1 -1 -1 -0 0 1 1 0 1 -0 0 3 3 4 2 0 4 1 1 -1 -1 1 0 -0 -0 0 1 1 1 -2 2 3 2 2
1 -3 -2 -3 -1 -0 -1 -1 -0 0 -1 -1 -1 1 1 1 1 1 1 2 -0 0 3 5 4 -6 44 -8 -2 1 0 3 2 -1 0 0 0 3 -2 -1 2 2 1
-2 -1 1 -2 -3 -2 -3 -1 1 1 1 1 0 0 0 0 -0 -0 2 1 2 -0 -0 1 2 4 -1 3 -4 6 -2 -1 5 0 2 -1 1 1 2 -1 1 3 4
-1 -1 2 -3 -0 -2 -1 -2 -1 1 1 1 0 0 1 1 -0 -0 1 1 4 0 1 2 -1 12 -2 31 16 -11 -7 -4 3 -0 1 -0 1 -0 1 0 -1 2 3
2 3 -3 1 -5 -2 -1 -1 -2 -1 -2 0 0 0 -0 -0 -0 -0 0 -0 1 2 1 -1 6 -11 1 12 0 14 21 -2 -1 1 -4 1 1 2 1 -1 -0 1 2
-1 -1 1 -0 0 -4 -4 -2 -0 -0 -0 -2 0 0 0 -0 0 0 0 0 -2 -1 -1 1 -3 0 8 -10 31 0 29 6 5 -1 -4 3 -2 2 1 -2 -0 0 3
-1 -0 1 -0 -3 -4 -0 -2 -1 -1 0 -1 -2 -2 -2 -0 -0 -0 -0 -0 1 -2 -2 0 1 -1 6 9 15 8 6 3 -28 5 -2 -3 -1 1 2 2 -1 -1 3
-0 1 2 -0 -4 -3 -2 0 -2 0 1 -1 -2 -2 -1 -1 -1 1 -0 -0 0 2 -1 0 2 1 -4 -7 -7 -3 15 7 12 2 -0 2 -4 -2 3 2 2 1 2
-2 -1 2 2 -3 -4 -4 -1 -1 -1 -1 -0 2 -1 0 -2 -3 -1 1 -1 -1 0 2 1 -2 -1 -8 -1 3 4 2 6 2 -1 8 -8 -5 -1 0 3 2 3 6
1 -1 2 1 -0 -5 -1 -2 -0 -1 -1 -3 0 1 0 2 -2 -2 -1 1 -1 1 2 4 4 -2 -0 -1 4 -2 -2 6 -3 -5 -6 -8 0 2 2 6 4 2 1
Height
3154 3154 3155 3156 3156 3157 3158 3158 3159 3160 3161 3161 3162 3163 3164 3165 3166 3167 3168 3168 3168 3168 3168 3169 3169 3169 3169 3170 3170 3170 3170 3170 3171 3171 3172 3173 3173 3174 3175 3176 3177 3178 3179
3153 3154 3154 3155 3155 3157 3158 3158 3159 3160 3160 3161 3162 3163 3163 3164 3165 3165 3166 3167 3168 3168 3168 3169 3168 3169 3169 3170 3170 3170 3170 3170 3171 3172 3173 3174 3174 3175 3176 3177 3178 3179 3180
3152 3153 3153 3154 3155 3156 3157 3157 3158 3159 3160 3161 3162 3162 3163 3164 3164 3165 3166 3166 3167 3167 3167 3168 3168 3169 3169 3170 3169 3170 3170 3170 3171 3172 3173 3174 3175 3176 3178 3179 3180 3181 3181
3150 3152 3152 3153 3154 3154 3155 3156 3157 3158 3159 3160 3161 3161 3161 3162 3163 3164 3165 3166 3166 3167 3167 3167 3168 3168 3169 3169 3169 3170 3170 3170 3171 3173 3174 3175 3176 3177 3179 3180 3181 3181 3182
3148 3149 3151 3151 3152 3153 3154 3155 3155 3157 3157 3158 3159 3160 3160 3161 3162 3163 3164 3165 3165 3166 3166 3167 3167 3167 3168 3169 3169 3169 3170 3170 3171 3173 3174 3175 3176 3177 3179 3180 3181 3182 3182
3146 3147 3148 3149 3150 3151 3152 3153 3154 3154 3155 3156 3157 3158 3158 3160 3161 3161 3162 3163 3164 3165 3165 3166 3167 3167 3167 3168 3168 3168 3169 3170 3171 3173 3174 3176 3177 3178 3179 3181 3182 3183 3183
3144 3144 3145 3146 3147 3148 3148 3150 3151 3152 3153 3153 3155 3156 3157 3158 3159 3160 3161 3162 3162 3163 3164 3165 3166 3166 3167 3167 3168 3168 3169 3170 3171 3173 3175 3177 3177 3177 3179 3181 3182 3183 3184
3140 3141 3141 3142 3143 3144 3145 3146 3147 3149 3150 3151 3152 3153 3155 3156 3156 3158 3159 3160 3161 3162 3163 3164 3164 3165 3166 3167 3167 3168 3169 3170 3171 3172 3175 3175 3176 3177 3179 3180 3181 3183 3184
3137 3137 3137 3138 3139 3139 3140 3141 3143 3144 3146 3147 3149 3150 3152 3153 3154 3155 3156 3157 3159 3160 3161 3163 3163 3164 3165 3166 3166 3167 3169 3170 3170 3172 3172 3174 3175 3177 3179 3180 3181 3183 3185
3134 3134 3134 3134 3135 3136 3137 3138 3138 3139 3141 3143 3145 3146 3148 3149 3151 3152 3153 3155 3157 3157 3158 3160 3161 3162 3163 3165 3165 3167 3168 3170 3170 3170 3171 3172 3174 3176 3178 3180 3181 3182 3184
3131 3131 3131 3131 3131 3132 3133 3134 3135 3135 3137 3138 3140 3142 3143 3145 3147 3148 3150 3152 3154 3155 3156 3157 3159 3160 3161 3163 3164 3165 3166 3167 3169 3170 3170 3171 3173 3175 3177 3178 3179 3181 3182
3128 3128 3128 3128 3128 3128 3129 3130 3131 3131 3132 3133 3135 3138 3140 3142 3143 3145 3146 3148 3150 3152 3152 3154 3156 3157 3158 3160 3162 3163 3164 3165 3166 3168 3169 3170 3171 3173 3175 3176 3178 3179 3181
3123 3124 3124 3124 3124 3124 3124 3125 3126 3127 3128 3129 3130 3132 3134 3137 3138 3140 3142 3143 3146 3147 3148 3149 3151 3154 3155 3157 3159 3160 3162 3162 3163 3165 3166 3168 3169 3170 3172 3174 3176 3177 3178
3120 3119 3119 3120 3120 3119 3120 3120 3121 3122 3123 3123 3125 3126 3129 3131 3133 3135 3137 3139 3141 3143 3144 3145 3147 3150 3152 3154 3155 3157 3158 3159 3160 3161 3162 3165 3167 3168 3170 3172 3174 3175 3177
3117 3115 3115 3115 3115 3115 3115 3115 3115 3116 3116 3118 3119 3120 3122 3124 3126 3129 3131 3133 3135 3138 3139 3140 3142 3145 3148 3150 3151 3153 3154 3155 3156 3157 3159 3161 3164 3164 3167 3169 3172 3173 3175
3112 3112 3111 3110 3110 3110 3110 3109 3109 3110 3110 3111 3112 3113 3115 3117 3119 3121 3124 3126 3129 3132 3134 3136 3138 3140 3142 3145 3147 3148 3150 3151 3152 3153 3155 3157 3160 3161 3163 3166 3169 3170 3172
3108 3107 3106 3105 3104 3103 3103 3103 3103 3103 3104 3105 3105 3106 3108 3109 3111 3113 3115 3118 3122 3125 3127 3129 3132 3134 3136 3138 3142 3143 3145 3146 3148 3149 3151 3153 3156 3158 3159 3161 3164 3167 3169
3103 3103 3102 3100 3099 3097 3097 3096 3096 3096 3097 3097 3099 3099 3100 3101 3103 3105 3107 3110 3113 3117 3120 3123 3125 3128 3128 3133 3135 3137 3139 3142 3143 3144 3146 3148 3152 3155 3155 3158 3160 3163 3165
3098 3097 3097 3096 3095 3093 3091 3090 3090 3089 3089 3089 3091 3092 3092 3093 3094 3096 3098 3101 3105 3108 3111 3114 3117 3121 3123 3126 3128 3129 3133 3135 3138 3139 3141 3143 3146 3149 3151 3153 3155 3158 3161
3091 3091 3091 3090 3089 3088 3086 3085 3084 3083 3082 3081 3081 3083 3084 3085 3086 3087 3089 3091 3095 3098 3102 3105 3108 3112 3116 3118 3118 3123 3125 3128 3130 3132 3135 3137 3140 3142 3145 3148 3149 3152 3156
3084 3084 3085 3084 3083 3082 3080 3078 3077 3077 3076 3074 3074 3074 3075 3077 3078 3078 3080 3082 3084 3088 3091 3097 3100 3102 3105 3108 3113 3110 3114 3115 3121 3125 3127 3130 3133 3136 3139 3143 3145 3147 3151
3078 3078 3078 3078 3077 3076 3074 3071 3070 3069 3069 3068 3068 3067 3066 3067 3068 3069 3071 3073 3075 3078 3081 3085 3090 3093 3097 3100 3101 3107 3104 3107 3111 3116 3119 3122 3126 3130 3133 3136 3139 3142 3145
3070 3071 3072 3072 3071 3069 3067 3064 3063 3062 3062 3062 3060 3059 3058 3058 3058 3059 3061 3063 3066 3068 3071 3074 3079 3084 3084 3088 3092 3097 3096 3095 3101 3107 3112 3115 3118 3123 3127 3129 3132 3137 3140
3063 3064 3065 3064 3064 3062 3060 3058 3055 3054 3054 3053 3052 3052 3050 3049 3049 3050 3051 3053 3056 3058 3061 3064 3068 3072 3075 3080 3084 3085 3089 3091 3096 3099 3102 3106 3111 3115 3119 3123 3126 3129 3134
3057 3058 3058 3057 3056 3054 3052 3050 3048 3046 3045 3044 3043 3041 3041 3040 3039 3039 3040 3041 3043 3046 3049 3053 3057 3060 3063 3069 3072 3076 3080 3082 3088 3090 3095 3097 3103 3109 3113 3116 3119 3121 3125
3050 3051 3051 3050 3049 3047 3045 3042 3040 3038 3036 3035 3034 3033 3032 3032 3030 3029 3029 3030 3031 3033 3037 3041 3046 3050 3053 3057 3063 3067 3070 3074 3078 3082 3085 3089 3097 3103 3107 3109 3111 3114 3116